カタログに戻る

LUCH

運用中通信GEO
NORAD 23426·PAYLOAD·🇷🇺 Russia

打ち上げ Dec 16, 1994 から Baikonur Cosmodrome

Loading…

TLE

最新Source: Space-Track

元期: Sep 14, 2026, 09:07 UTC

1 23426U 94082A   26257.37993661  .00000064  00000-0  00000-0 0  9996
2 23426  14.7377 353.8947 0006878 212.9370 147.0392  1.00174553116156

AllMySatでLUCHをリアルタイム追跡

Download on the App Store